Regional Weather Roundup
Issued by NWS

Home | Current Version | Previous Version | Text Only | Print | Product List | Glossary On
Versions: 1 2 3 4 5 6 7 8 9 10 11 12 13 14 15 16 17 18 19 20 21 22 23 24 25 26 27 28 29 30 31 32 33 34 35 36 37 38 39 40 41 42 43 44 45 46 47 48 49 50
000
ASUS43 KBIS 211910
RWRND

NORTH DAKOTA REGIONAL WEATHER ROUNDUP
NATIONAL WEATHER SERVICE BISMARCK ND
200 PM CDT THU AUG 21 2014

NOTE: "FAIR" INDICATES FEW OR NO CLOUDS BELOW 12,000 FEET WITH NO
SIGNIFICANT WEATHER AND/OR OBSTRUCTIONS TO VISIBILITY.


NDZ001>003-009>011-017-212000-
NORTHWEST NORTH DAKOTA

CITY           SKY/WX    TMP DP  RH WIND       PRES   REMARKS
WILLISTON      CLOUDY    68  59  73 N9        29.96S
MINOT          CLOUDY    71  62  73 NW8       29.87S
MINOT AFB      CLOUDY    72  65  77 NW13      29.87S
$$

NDZ018>021-031>035-040>046-212000-
SOUTHWEST NORTH DAKOTA

CITY           SKY/WX    TMP DP  RH WIND       PRES   REMARKS
BISMARCK       MOSUNNY   79  65  62 NW13      29.87R
DICKINSON      SUNNY     77  61  57 N9        29.93R
GARRISON         N/A     78  63  59 N12       29.88R
HETTINGER ARPT SUNNY     79  59  50 N8        29.94S
$$

NDZ004>008-012>016-024-026-027-054-212000-
NORTHEAST NORTH DAKOTA

CITY           SKY/WX    TMP DP  RH WIND       PRES   REMARKS
GRAND FORKS    CLOUDY    75  68  78 CALM      29.78R
GRND FRKS AFB  CLOUDY    74  71  91 NE2       29.80R
DEVILS LAKE    PTSUNNY   72  64  78 N9        29.80R
$$

NDZ022-023-025-028>030-036>039-047>053-212000-
SOUTHEAST NORTH DAKOTA

CITY           SKY/WX    TMP DP  RH WIND       PRES   REMARKS
FARGO          CLOUDY    78  68  71 E3        29.76R
JAMESTOWN      PTSUNNY   77  69  76 NW10      29.80R
$$



USA.gov is the U.S. government's official web portal to all federal, state and local government web resources and services.